Find Starlink 2322

NORAD ID: 47791 Int'l Des: 2021-018 Owner: SPXS Country: US Constellation: starlink operational
LEOCIRCULAR

現在のビュー

3D地球を読み込み中...

About Starlink 2322

Starlink 2322 (NORAD 47791) is a starlink constellation satellite (v1.0) launched Mar 11, 2021 by SPXS of US. It operates in LEO, CIRCULAR orbit with a mass of 260.00 kg.

Starlink 2322について

説明を読み込み中...

次回通過

Passes for default location (London). Set your location on the main map for personalized predictions.

高度履歴

Loading altitude history...

軌道要素

1 47791U 21018E 26167.23029046 .00003322 00000-0 11877-3 0 9995
2 47791 53.1595 144.5065 0001110 91.4339 268.6790 15.31700301291837
Epoch: Jun 16, 2026 • Age: 9 hours

現在のステータス

高度 480.4 km
速度 7.62 km/s
衛星直下点 -30.09°S, 9.07°W
打ち上げ日 Mar 11, 2021
運用期間 5.2 years
タイプ internet

技術仕様

分類 Payload
質量 260.00 kg
乾燥質量 248.00 kg
総質量 260.00 kg
長さ 0.20 m
直径 2.80 m
スパン 9.00 m
形状 Box + pan
製造者 SPXS
バスタイプ Starlink
フェーズステータス In Orbit
所有者/国 SPXS/US

Most Searched